[[{"header":{"parameterUnit":"m.s-1","parameterCategory":2,"la1":30.2991,"la2":30.254,"lo1":-89.0895,"lo2":-89.0444,"dy":0.0017,"dx":0.0017,"nx":28,"ny":28,"refTime":"2024-07-19T03:00:00:Z","depth":"0","parameterNumber":2,"parameterNumberName":"U-component_of_CURRENTS"},"data":[0,0,0,0,0,0,0,0,0,0,0,0,0,0,0,0,0,0,0,0,0,0,0,0,0,0,0,0,0,0,0,0,0,0,0,0,0,0,0,0,0,0,0,0,0,0,0,0,0,0,0,0,0,0,0,0,0,0,0.3823,0.3823,0,0.3795,0.3795,0.3794,0.3756,0.3756,0.3755,0.3755,0.379,0.3791,0.3793,0,0,0,0,0,0,0,0,0,0,0,0,0,0.3874,0.3873,0.3823,0.3823,0.3823,0.3796,0.3795,0.3794,0.3756,0.3756,0.3755,0.3755,0.379,0.3791,0.3793,0,0,0,0,0,0,0,0,0,0,0,0,0,0.3847,0.3872,0.3823,0.3803,0.3801,0.3796,0.3795,0.3794,0.3756,0.3756,0.3755,0.3755,0.3789,0.3791,0.3793,0.3817,0,0,0.3799,0.38,0,0,0,0,0,0,0,0,0.3849,0.3845,0.3806,0.3804,0.3802,0.3781,0.3826,0.3806,0.3757,0.377,0.3755,0.3754,0.3795,0.3797,0.3788,0.3819,0.382,0.3799,0.38,0.3801,0.3802,0,0,0,0,0,0,0,0.385,0.3846,0.3809,0.3806,0.3803,0.3806,0.38,0.3821,0.3786,0.3769,0.3767,0.3768,0.3794,0.3786,0.3789,0.3821,0.3799,0.3801,0.3802,0.3803,0.4056,0.4062,0,0,0,0,0,0,0.3858,0.3848,0.381,0.3809,0.3827,0.3805,0.3799,0.3786,0.3784,0.3783,0.3769,0.3767,0.3783,0.3787,0.379,0.3956,0.3801,0.3803,0.3804,0.4051,0.4058,0.4064,0,0,0,0,0,0,0.3859,0.3854,0.3812,0.3831,0.3826,0.3805,0.379,0.3786,0.3788,0.3784,0.3783,0.3777,0.3783,0.3787,0.3842,0.3952,0.3804,0.3806,0.4044,0.4053,0.4061,0.42,0,0,0,0,0,0,0.386,0.3854,0.3854,0.3831,0.3825,0.3824,0.3791,0.3786,0.3791,0.3788,0.3791,0.3792,0.3783,0.384,0.3844,0.3952,0.3807,0.4037,0.4048,0.4058,0.4188,0.4212,0.4232,0,0,0,0,0,0.3862,0.3862,0.3854,0.385,0.3822,0.3826,0.3823,0.3805,0.3792,0.3802,0.3819,0.3793,0.3912,0.3844,0.3849,0.3959,0.4032,0.4045,0.4057,0.4179,0.4207,0.4232,0,0,0,0,0,0,0.3884,0.3858,0.3848,0.384,0.3842,0.382,0.3826,0.3818,0.3835,0.3839,0.3829,0.3834,0.3943,0.393,0.3856,0.4072,0.3983,0.3996,0.4074,0.4101,0.4122,0.4133,0.3809,0,0,0,0,0,0.389,0.3879,0.3867,0.3863,0.3865,0.385,0.3851,0.3845,0.3854,0.3858,0.3865,0.391,0.3998,0.4024,0.4076,0.416,0.4181,0.425,0.4272,0.429,0.4309,0.444,0.4474,0.4105,0.4105,0.4104,0,0,0.3894,0.3882,0.3874,0.3868,0.3862,0.3904,0.3849,0.386,0.3926,0.3864,0.3948,0.3978,0.4041,0.4158,0.4207,0.4155,0.4411,0.4306,0.4321,0.433,0.4457,0.4492,0.4524,0.4113,0.4112,0.411,0,0,0.3911,0.3892,0.3897,0.3917,0.3926,0.3938,0.395,0.3948,0.3977,0.4054,0.4069,0.4154,0.4232,0.4313,0.4369,0.4543,0.4529,0.4576,0.4684,0.4811,0.4842,0.4869,0.4944,0.4977,0.4579,0.458,0.458,0,0.3922,0.3934,0.3904,0.394,0.3978,0.3966,0.4022,0.4065,0.409,0.4146,0.4107,0.43,0.4328,0.4527,0.4595,0.4595,0.4639,0.4567,0.4837,0.4864,0.489,0.496,0.4995,0.4588,0.4587,0.4586,0.4585,0,0.3954,0.3987,0.4,0.4051,0.4089,0.4132,0.4194,0.4247,0.4282,0.4331,0.4497,0.4537,0.4649,0.4702,0.4699,0.4922,0.4886,0.4851,0.4757,0.4935,0.4999,0.5032,0.46,0.4597,0.4594,0.4592,0,0,0.3924,0.4006,0.4014,0.4074,0.4158,0.4192,0.433,0.4449,0.4551,0.4614,0.4763,0.4917,0.4912,0.4977,0.4996,0.5101,0.5311,0.5053,0.5056,0.5104,0.5572,0.5398,0.5415,0.5319,0.5326,0.5331,0.5543,0,0.3967,0.4063,0.4099,0.4229,0.4296,0.4363,0.4491,0.4607,0.4702,0.484,0.4945,0.5085,0.5034,0.509,0.5201,0.5291,0.5406,0.5255,0.5413,0.5417,0.5222,0.5451,0.5121,0.527,0.5575,0.558,0.5584,0,0.3987,0.4065,0.4187,0.434,0.4373,0.4457,0.4652,0.4764,0.4969,0.5044,0.5191,0.5253,0.5449,0.536,0.5608,0.5512,0.5566,0.5613,0.5621,0.543,0.5306,0.5146,0.5317,0.5207,0.5634,0.563,0.5627,0,0.3982,0.4124,0.423,0.4284,0.4456,0.4537,0.4635,0.4824,0.495,0.5176,0.5286,0.5483,0.5605,0.5721,0.5801,0.5731,0.6047,0.5955,0.5856,0.5842,0.5577,0.5527,0.5634,0.6155,0.6154,0.6154,0.6153,0,0.4013,0.4097,0.4235,0.4298,0.4446,0.4552,0.4724,0.4848,0.5059,0.5224,0.5377,0.5535,0.5707,0.588,0.5912,0.5993,0.6144,0.593,0.5916,0.5614,0.5568,0.5465,0.5403,0.6161,0.616,0.6158,0.6157,0,0.3986,0.4073,0.4208,0.4387,0.4443,0.4546,0.4752,0.4875,0.5072,0.5297,0.538,0.5654,0.5847,0.5985,0.6195,0.613,0.6038,0.6205,0.581,0.5744,0.5448,0.5403,0.5334,0.5187,0.6116,0.6114,0.6112,0,0.398,0.405,0.4242,0.4319,0.4398,0.4555,0.4658,0.4861,0.4991,0.5342,0.5446,0.5727,0.587,0.6108,0.6047,0.6091,0.5983,0.5822,0.5619,0.5442,0.5386,0.5223,0.5093,0.5338,0.533,0.5323,0.5318,0,0.4006,0.4068,0.4179,0.4321,0.4432,0.4562,0.4718,0.4806,0.5048,0.5222,0.5461,0.5611,0.5803,0.5694,0.5747,0.5722,0.55,0.5677,0.5629,0.4913,0.4613,0.4456,0.5173,0.5257,0.5263,0.5267,0.527,0.5273,0.4022,0.4089,0.4222,0.4332,0.4434,0.4518,0.4546,0.4695,0.4842,0.4983,0.5269,0.5317,0.5371,0.5353,0.5314,0.5021,0.5072,0.483,0.4835,0.4724,0.4435,0.4992,0.4962,0.4966,0.497,0.4973,0.4976,0,0.4038,0.4112,0.4225,0.4322,0.4337,0.4439,0.4539,0.4496,0.452,0.4674,0.4793,0.4764,0.465,0.4655,0.4447,0.4237,0.4045,0.4134,0.3857,0.3806,0.4428,0.4243,0.3888,0.3888,0.3888,0.3888,0.3889,0.3889,0.4072,0.4149,0.4181,0.4191,0.4218,0.4158,0.4149,0.4092,0.4112,0.4024,0.3945,0.4027,0.4202,0.4116,0.3883,0.3772,0.3537,0.3282,0.3416,0.3869,0.3935,0.3997,0.3814,0.3375,0.3375,0.2576,0.257,0.2566]},{"header":{"parameterUnit":"m.s-1","parameterCategory":2,"la1":30.2991,"la2":30.254,"lo1":-89.0895,"lo2":-89.0444,"dy":0.0017,"dx":0.0017,"nx":28,"ny":28,"refTime":"2024-07-19T03:00:00:Z","depth":"0","parameterNumber":3,"parameterNumberName":"V-component_of_CURRENTS"},"data":[0,0,0,0,0,0,0,0,0,0,0,0,0,0,0,0,0,0,0,0,0,0,0,0,0,0,0,0,0,0,0,0,0,0,0,0,0,0,0,0,0,0,0,0,0,0,0,0,0,0,0,0,0,0,0,0,0,0,0.0218,0.0217,0,0.0145,0.0144,0.0143,0.0101,0.0101,0.0101,0.0101,0.0023,0.0021,0.0019,0,0,0,0,0,0,0,0,0,0,0,0,0,0.026,0.0259,0.0218,0.0217,0.0217,0.0145,0.0144,0.0143,0.0101,0.0101,0.0101,0.0101,0.0024,0.0022,0.0019,0,0,0,0,0,0,0,0,0,0,0,0,0,0.0219,0.0259,0.0218,0.0188,0.0185,0.0146,0.0144,0.0143,0.0101,0.0101,0.0101,0.0101,0.0025,0.0022,0.0019,0.0002,0,0,0.001,0.0008,0,0,0,0,0,0,0,0,0.0221,0.0217,0.0193,0.019,0.0186,0.0133,0.013,0.0096,0.0101,0.0132,0.0101,0.0101,0.0061,0.0055,0.0039,-0.0002,-0.0005,0.0009,0.0008,0.0006,0.0005,0,0,0,0,0,0,0,0.0224,0.022,0.0188,0.0192,0.0188,0.0157,0.0151,0.0123,0.0096,0.0129,0.0126,0.012,0.0058,0.0042,0.0037,-0.0006,0.0009,0.0007,0.0005,0.0004,-0.0019,-0.0018,0,0,0,0,0,0,0.0239,0.0223,0.019,0.0186,0.0205,0.0157,0.015,0.0149,0.0097,0.0089,0.012,0.0118,0.0048,0.0041,0.0034,0.0066,0.0006,0.0003,0.0002,-0.0021,-0.0019,-0.0018,0,0,0,0,0,0,0.024,0.0237,0.0193,0.0203,0.0196,0.0157,0.0155,0.0148,0.0138,0.009,0.0082,0.0119,0.0047,0.0039,0.0019,0.0061,0.0002,-0.0001,-0.0022,-0.002,-0.0018,0.0094,0,0,0,0,0,0,0.0242,0.0238,0.024,0.0205,0.0196,0.0183,0.0155,0.0147,0.0135,0.0132,0.0086,0.0079,0.0047,0.0024,0.0016,0.0056,-0.0003,-0.0024,-0.0021,-0.0019,0.0089,0.01,0.0109,0,0,0,0,0,0.0243,0.0249,0.024,0.0236,0.0201,0.0184,0.0177,0.0147,0.0135,0.0137,0.0106,0.008,0.0033,0.0022,0.0012,0.0052,-0.0025,-0.0022,-0.0019,0.0085,0.0098,0.0109,0,0,0,0,0,0,0.0263,0.0244,0.0234,0.0232,0.0216,0.0177,0.0173,0.0155,0.013,0.0126,0.0084,0.0074,0.0076,0.0043,0.0032,0.0052,0.0005,0.0006,0.0087,0.0099,0.0109,0.0149,-0.0006,0,0,0,0,0,0.0271,0.0274,0.0249,0.0248,0.0243,0.0211,0.0199,0.0181,0.0155,0.0143,0.0114,0.0088,0.0079,0.0071,0.0047,0.0051,0.0034,0.0073,0.0083,0.0092,0.0118,0.0124,0.0137,-0.0009,-0.0009,-0.0009,0,0,0.0276,0.0268,0.0267,0.0253,0.0236,0.025,0.0204,0.0193,0.0215,0.0139,0.0153,0.0116,0.0085,0.0095,0.0094,0.0073,0.0122,0.0095,0.0103,0.0125,0.0128,0.0142,0.0155,-0.0007,-0.0007,-0.0008,0,0,0.03,0.0286,0.0301,0.0298,0.0283,0.0272,0.0276,0.0246,0.0244,0.0244,0.0208,0.0195,0.0167,0.0163,0.0158,0.0206,0.0171,0.0199,0.0287,0.0292,0.0305,0.0315,0.0306,0.0315,0.0208,0.0209,0.0209,0,0.0308,0.0333,0.0301,0.0322,0.034,0.0294,0.033,0.032,0.029,0.0309,0.0265,0.0256,0.021,0.0258,0.0268,0.0233,0.0224,0.0246,0.0307,0.0318,0.0327,0.0315,0.0324,0.0214,0.0214,0.0213,0.0213,0,0.035,0.0374,0.0385,0.0411,0.042,0.044,0.0435,0.0443,0.0432,0.0427,0.0454,0.0391,0.0397,0.0376,0.0333,0.039,0.0357,0.0317,0.0283,0.0349,0.0331,0.0338,0.0223,0.0221,0.0219,0.0217,0,0,0.037,0.041,0.0419,0.0467,0.0478,0.05,0.0542,0.0584,0.0643,0.0596,0.0676,0.0624,0.059,0.0582,0.0528,0.0519,0.0551,0.0453,0.045,0.0454,0.0561,0.0496,0.0496,0.0525,0.0527,0.0528,0.052,0,0.0423,0.0503,0.0505,0.0599,0.065,0.0647,0.0705,0.0733,0.0745,0.0801,0.0756,0.0792,0.0674,0.0686,0.0659,0.0592,0.0577,0.0557,0.0487,0.0486,0.0429,0.0505,0.0476,0.0463,0.0527,0.0528,0.0529,0,0.0476,0.0535,0.0637,0.0738,0.0761,0.081,0.092,0.0963,0.1016,0.1028,0.1042,0.1004,0.1003,0.0885,0.0808,0.0804,0.0697,0.0621,0.0618,0.0529,0.0435,0.0407,0.0473,0.0301,0.0539,0.0538,0.0537,0,0.0543,0.0634,0.0736,0.0767,0.086,0.0922,0.0975,0.1039,0.1123,0.1185,0.1256,0.1215,0.1239,0.1106,0.0924,0.0883,0.0828,0.0751,0.0591,0.0583,0.0532,0.0518,0.0437,0.0698,0.0698,0.0698,0.0698,0,0.0618,0.0699,0.0783,0.0844,0.0989,0.1015,0.1169,0.121,0.1315,0.1462,0.1387,0.1498,0.1298,0.1232,0.1022,0.0841,0.0903,0.0635,0.0592,0.0567,0.0556,0.038,0.0236,0.0698,0.0698,0.0698,0.0698,0,0.0681,0.0727,0.086,0.098,0.1027,0.1136,0.13,0.1417,0.1488,0.1684,0.1724,0.1742,0.167,0.1428,0.1233,0.1,0.0677,0.071,0.0683,0.0637,0.0312,0.0175,0.0023,-0.0062,0.0555,0.0554,0.0553,0,0.0723,0.0799,0.0961,0.1059,0.1123,0.1278,0.1399,0.15,0.1643,0.1855,0.1977,0.1973,0.2011,0.1677,0.1252,0.0883,0.0671,0.06,0.0505,0.0319,0.0135,0.005,-0.0016,0.0477,0.0475,0.0474,0.0473,0,0.0824,0.0881,0.0993,0.1181,0.1327,0.1501,0.1681,0.1819,0.1985,0.2169,0.2401,0.2452,0.2136,0.1765,0.1218,0.0949,0.0447,0.0558,0.0389,0.0095,-0.0023,-0.0133,0.0443,0.046,0.0461,0.0462,0.0463,0.0464,0.0905,0.1006,0.1151,0.1325,0.1496,0.1715,0.1876,0.2091,0.2356,0.2643,0.2688,0.2777,0.2208,0.1477,0.1094,0.0365,0.0355,0.014,-0.0001,-0.0059,-0.0173,0.0366,0.0313,0.0313,0.0314,0.0314,0.0314,0,0.1011,0.1121,0.1288,0.1508,0.1697,0.177,0.2065,0.2253,0.258,0.2808,0.3004,0.2733,0.2049,0.1349,0.0343,-0.0119,-0.0265,-0.0355,-0.0471,-0.0504,0.001,-0.0025,-0.018,-0.018,-0.018,-0.018,-0.018,-0.0179,0.1083,0.1246,0.1323,0.1633,0.1792,0.2066,0.224,0.2525,0.2731,0.3007,0.3019,0.2993,0.2407,0.0712,-0.0395,-0.0625,-0.087,-0.0987,-0.1096,-0.0753,-0.0716,-0.0681,-0.0741,-0.1044,-0.1045,-0.1522,-0.1527,-0.1531]}],[{"header":{"parameterUnit":"m.s-1","parameterCategory":2,"la1":30.2991,"la2":30.254,"lo1":-89.0895,"lo2":-89.0444,"dy":0.0017,"dx":0.0017,"nx":28,"ny":28,"refTime":"2024-07-19T03:00:00:Z","depth":"2","parameterNumber":2,"parameterNumberName":"U-component_of_CURRENTS"},"data":[0,0,0,0,0,0,0,0,0,0,0,0,0,0,0,0,0,0,0,0,0,0,0,0,0,0,0,0,0,0,0,0,0,0,0,0,0,0,0,0,0,0,0,0,0,0,0,0,0,0,0,0,0,0,0,0,0,0,0.3353,0.3353,0,0.3348,0.3348,0.3348,0.3331,0.3331,0.3331,0.3331,0.3343,0.3343,0.3343,0,0,0,0,0,0,0,0,0,0,0,0,0,0.3369,0.3369,0.3353,0.3353,0.3353,0.3348,0.3348,0.3348,0.3331,0.3331,0.3331,0.3331,0.3342,0.3343,0.3343,0,0,0,0,0,0,0,0,0,0,0,0,0,0.3361,0.3369,0.3353,0.3346,0.3346,0.3348,0.3348,0.3347,0.3331,0.3331,0.3331,0.333,0.3342,0.3343,0.3344,0.3352,0,0,0.3346,0.3346,0,0,0,0,0,0,0,0,0.3361,0.336,0.3347,0.3347,0.3346,0.3342,0.3358,0.3351,0.3331,0.3334,0.3331,0.333,0.3346,0.3346,0.3342,0.3353,0.3353,0.3346,0.3346,0.3346,0.3347,0,0,0,0,0,0,0,0.3362,0.336,0.3349,0.3347,0.3347,0.3351,0.3349,0.3356,0.334,0.3334,0.3333,0.3337,0.3345,0.3341,0.3342,0.3354,0.3346,0.3346,0.3347,0.3347,0.3453,0.3456,0,0,0,0,0,0,0.3366,0.3361,0.3349,0.3349,0.3356,0.3351,0.3349,0.3342,0.3339,0.3339,0.3337,0.3336,0.334,0.3341,0.3343,0.3462,0.3346,0.3347,0.3347,0.3451,0.3454,0.3456,0,0,0,0,0,0,0.3366,0.3365,0.3349,0.3357,0.3356,0.3351,0.3343,0.3342,0.3353,0.3342,0.3341,0.3352,0.334,0.3342,0.3376,0.3458,0.3347,0.3348,0.3448,0.3452,0.3455,0.3631,0,0,0,0,0,0,0.3367,0.3365,0.337,0.3357,0.3356,0.3366,0.3344,0.3342,0.3356,0.3355,0.3355,0.3354,0.334,0.3375,0.3377,0.3457,0.3349,0.3445,0.345,0.3454,0.3622,0.364,0.3656,0,0,0,0,0,0.3367,0.3372,0.337,0.337,0.336,0.3367,0.3367,0.3361,0.3357,0.337,0.3377,0.3355,0.3405,0.3378,0.3379,0.3462,0.3443,0.3448,0.3454,0.3615,0.3637,0.3655,0,0,0,0,0,0,0.3382,0.337,0.3368,0.3369,0.3377,0.3366,0.3377,0.3376,0.3389,0.3395,0.338,0.3381,0.3451,0.3419,0.3388,0.3502,0.3423,0.3429,0.3545,0.3566,0.3582,0.3574,0.3349,0,0,0,0,0,0.3389,0.3387,0.3384,0.3388,0.3394,0.3391,0.3397,0.3398,0.3404,0.3409,0.3409,0.3423,0.3471,0.3486,0.3503,0.3555,0.3561,0.3608,0.3625,0.3639,0.3632,0.3735,0.3762,0.3474,0.3474,0.3474,0,0,0.3393,0.339,0.3388,0.3393,0.3395,0.3422,0.3394,0.3412,0.3456,0.341,0.3466,0.3482,0.3497,0.3571,0.3598,0.3556,0.3728,0.3646,0.3659,0.3644,0.3744,0.3772,0.3798,0.3478,0.3477,0.3477,0,0,0.3404,0.3404,0.3408,0.3425,0.3443,0.3452,0.3465,0.3469,0.3496,0.3547,0.3552,0.3614,0.364,0.3691,0.372,0.3832,0.3817,0.3835,0.3916,0.4019,0.4044,0.4066,0.4131,0.4157,0.384,0.3841,0.3841,0,0.3415,0.3421,0.3415,0.3438,0.3468,0.3472,0.3509,0.3543,0.3565,0.3608,0.3584,0.3694,0.3711,0.3842,0.3884,0.3879,0.3906,0.3848,0.4045,0.4066,0.4086,0.4146,0.4173,0.385,0.3849,0.3848,0.3847,0,0.3433,0.3452,0.3463,0.3498,0.3532,0.3563,0.3613,0.3658,0.3691,0.3728,0.3846,0.3876,0.3947,0.3977,0.3967,0.4125,0.4092,0.4064,0.4001,0.4126,0.4181,0.4206,0.3863,0.386,0.3857,0.3855,0,0,0.3416,0.3465,0.347,0.3504,0.3571,0.3596,0.3698,0.3786,0.3861,0.3914,0.4028,0.4127,0.4144,0.4174,0.4192,0.4263,0.4447,0.422,0.4221,0.4296,0.4655,0.4483,0.4492,0.4459,0.4464,0.4468,0.4646,0,0.3436,0.3488,0.3517,0.3593,0.3631,0.3694,0.3788,0.388,0.3955,0.4064,0.4155,0.4262,0.4227,0.4283,0.4365,0.442,0.4515,0.4398,0.4508,0.451,0.4354,0.4517,0.4144,0.4257,0.4669,0.4673,0.4676,0,0.3439,0.3484,0.3551,0.3653,0.3677,0.374,0.3889,0.3973,0.414,0.4207,0.4333,0.439,0.4546,0.4486,0.4668,0.4594,0.4645,0.4668,0.4676,0.4462,0.4384,0.4193,0.4286,0.4717,0.4714,0.4711,0.4708,0,0.342,0.3505,0.3562,0.3595,0.3713,0.3783,0.3871,0.4023,0.4123,0.4315,0.441,0.4566,0.4687,0.4765,0.4827,0.4773,0.4994,0.4934,0.4833,0.482,0.4491,0.444,0.5085,0.5085,0.5085,0.5084,0.5084,0,0.3421,0.3469,0.356,0.3593,0.3709,0.3791,0.3923,0.4042,0.4217,0.4342,0.4491,0.4612,0.4765,0.4896,0.491,0.4948,0.5087,0.4873,0.4871,0.454,0.4494,0.4859,0.4831,0.5091,0.5089,0.5088,0.5087,0,0.3383,0.3435,0.3503,0.3631,0.3695,0.3777,0.3966,0.4042,0.4228,0.4405,0.4485,0.4723,0.4858,0.4967,0.5116,0.5062,0.5101,0.5086,0.4666,0.4608,0.4835,0.4814,0.4988,0.4984,0.498,0.4977,0.4975,0,0.3364,0.3388,0.3519,0.3573,0.3638,0.3771,0.3857,0.4047,0.4123,0.4432,0.4503,0.4744,0.4825,0.4983,0.4947,0.4964,0.5068,0.4623,0.4438,0.4854,0.4835,0.4819,0.4802,0.4095,0.4085,0.4077,0.4071,0,0.3334,0.3366,0.3426,0.3531,0.3621,0.3705,0.3842,0.3916,0.4117,0.4257,0.4429,0.4536,0.4703,0.4541,0.4589,0.4536,0.4571,0.4459,0.5071,0.4149,0.4018,0.3996,0.4009,0.4002,0.4009,0.4014,0.4018,0.402,0.3305,0.3329,0.3387,0.348,0.357,0.3608,0.3607,0.3712,0.3811,0.3943,0.4174,0.4193,0.4257,0.4102,0.3982,0.3904,0.4202,0.4003,0.4025,0.4056,0.3894,0.376,0.3665,0.367,0.3674,0.3678,0.3681,0,0.3254,0.3292,0.334,0.3398,0.3393,0.3504,0.3553,0.3477,0.3476,0.3637,0.3715,0.3456,0.3362,0.3428,0.3204,0.3189,0.315,0.3046,0.2965,0.3038,0.3102,0.2887,0.2394,0.239,0.2386,0.2382,0,0,0.3223,0.3232,0.3234,0.3199,0.3237,0.3149,0.3127,0.3048,0.3066,0.3013,0.2996,0.3242,0.3357,0.2847,0.2768,0.2543,0.2767,0.244,0.3483,0.3464,0.3522,0.3675,0.3429,0,0,0,0,0]},{"header":{"parameterUnit":"m.s-1","parameterCategory":2,"la1":30.2991,"la2":30.254,"lo1":-89.0895,"lo2":-89.0444,"dy":0.0017,"dx":0.0017,"nx":28,"ny":28,"refTime":"2024-07-19T03:00:00:Z","depth":"2","parameterNumber":3,"parameterNumberName":"V-component_of_CURRENTS"},"data":[0,0,0,0,0,0,0,0,0,0,0,0,0,0,0,0,0,0,0,0,0,0,0,0,0,0,0,0,0,0,0,0,0,0,0,0,0,0,0,0,0,0,0,0,0,0,0,0,0,0,0,0,0,0,0,0,0,0,0.0098,0.0097,0,0.0035,0.0035,0.0034,-0.0003,-0.0003,-0.0003,-0.0003,-0.0075,-0.0076,-0.0078,0,0,0,0,0,0,0,0,0,0,0,0,0,0.0133,0.0133,0.0098,0.0097,0.0096,0.0035,0.0035,0.0034,-0.0003,-0.0003,-0.0003,-0.0003,-0.0074,-0.0076,-0.0078,0,0,0,0,0,0,0,0,0,0,0,0,0,0.0098,0.0133,0.0098,0.0071,0.0068,0.0036,0.0034,0.0033,-0.0003,-0.0003,-0.0003,-0.0003,-0.0073,-0.0076,-0.0079,-0.0093,0,0,-0.0087,-0.0088,0,0,0,0,0,0,0,0,0.01,0.0097,0.0076,0.0073,0.007,0.0024,0.0021,-0.0009,-0.0003,0.0023,-0.0003,-0.0003,-0.0042,-0.0047,-0.0059,-0.0096,-0.0099,-0.0087,-0.0089,-0.009,-0.0091,0,0,0,0,0,0,0,0.0103,0.0099,0.0072,0.0075,0.0071,0.0045,0.004,0.0015,-0.0008,0.0021,0.0018,0.0013,-0.0044,-0.0057,-0.0061,-0.01,-0.0087,-0.009,-0.0091,-0.0092,-0.013,-0.0129,0,0,0,0,0,0,0.0115,0.0102,0.0074,0.0071,0.0086,0.0044,0.0039,0.0039,-0.0008,-0.0015,0.0013,0.0011,-0.0052,-0.0058,-0.0064,-0.0044,-0.009,-0.0093,-0.0094,-0.0131,-0.013,-0.0129,0,0,0,0,0,0,0.0116,0.0113,0.0077,0.0085,0.0078,0.0044,0.0044,0.0037,0.003,-0.0014,-0.0021,0.0013,-0.0052,-0.006,-0.0078,-0.0048,-0.0094,-0.0096,-0.0131,-0.013,-0.013,-0.0029,0,0,0,0,0,0,0.0117,0.0114,0.0117,0.0086,0.0078,0.0068,0.0044,0.0036,0.0027,0.0024,-0.0017,-0.0024,-0.0053,-0.0074,-0.0081,-0.0053,-0.0098,-0.0132,-0.0131,-0.013,-0.0033,-0.0025,-0.0017,0,0,0,0,0,0.0119,0.0125,0.0117,0.0114,0.0084,0.0069,0.0063,0.0037,0.0027,0.0029,0.0001,-0.0022,-0.0071,-0.0075,-0.0084,-0.0056,-0.0133,-0.0131,-0.013,-0.0036,-0.0026,-0.0018,0,0,0,0,0,0,0.0137,0.0121,0.0112,0.0111,0.0097,0.0063,0.006,0.0045,0.0024,0.002,-0.0019,-0.0028,-0.0031,-0.0062,-0.0066,-0.0065,-0.0104,-0.0104,-0.003,-0.0021,-0.0013,0.0011,-0.0101,0,0,0,0,0,0.0144,0.0147,0.0125,0.0126,0.0122,0.0094,0.0084,0.0068,0.0045,0.0036,0.0009,-0.0019,-0.0033,-0.0042,-0.0067,-0.0068,-0.0098,-0.0056,-0.0048,-0.0041,-0.0028,-0.0048,-0.004,-0.0125,-0.0125,-0.0125,0,0,0.0149,0.0142,0.0142,0.0131,0.0116,0.0127,0.0088,0.008,0.0096,0.0031,0.004,0.0005,-0.0029,-0.0028,-0.0031,-0.0048,-0.0034,-0.004,-0.0033,-0.0024,-0.0046,-0.0037,-0.003,-0.0124,-0.0124,-0.0124,0,0,0.017,0.0159,0.0172,0.017,0.0158,0.0147,0.0151,0.0126,0.0122,0.012,0.0085,0.0068,0.0038,0.0025,0.0015,0.0049,0.0005,0.004,0.0104,0.0085,0.0093,0.0098,0.007,0.0072,0.0047,0.0048,0.0048,0,0.0178,0.0199,0.0173,0.0192,0.0206,0.0166,0.0197,0.0186,0.0159,0.017,0.0137,0.0109,0.007,0.0091,0.0098,0.007,0.0045,0.0076,0.0098,0.0103,0.0107,0.0076,0.0078,0.0053,0.0052,0.0051,0.0051,0,0.0215,0.0236,0.0246,0.0267,0.0275,0.0292,0.0284,0.029,0.0279,0.0267,0.0274,0.0216,0.0209,0.0188,0.0151,0.0172,0.0139,0.0109,0.008,0.0122,0.0086,0.0086,0.006,0.0058,0.0056,0.0055,0,0,0.0235,0.0268,0.0276,0.0316,0.0324,0.0343,0.0375,0.0402,0.0442,0.0396,0.0446,0.0392,0.0357,0.0342,0.0293,0.0263,0.026,0.0204,0.0201,0.0187,0.0213,0.0154,0.0147,0.0234,0.0235,0.0235,0.0174,0,0.0281,0.0349,0.0351,0.043,0.0472,0.0467,0.0513,0.0528,0.0526,0.0556,0.0501,0.0515,0.0421,0.0425,0.0381,0.0298,0.0264,0.0279,0.0164,0.0161,0.0112,0.0147,0.0182,0.0128,0.0174,0.0174,0.0174,0,0.0328,0.0376,0.0463,0.0547,0.0566,0.0608,0.0692,0.0725,0.0743,0.0742,0.073,0.0682,0.0649,0.0558,0.0438,0.0452,0.0345,0.026,0.0256,0.0168,0.0102,0.0091,0.0125,0.0173,0.0173,0.0173,0.0173,0,0.0384,0.0461,0.0547,0.0572,0.0649,0.0703,0.075,0.0787,0.0852,0.0868,0.0912,0.0837,0.0836,0.0689,0.0506,0.0481,0.036,0.0306,0.015,0.0144,0.0135,0.0127,0.0222,0.0222,0.0222,0.0222,0.0222,0,0.0448,0.0517,0.0587,0.0638,0.0768,0.0786,0.0914,0.0944,0.101,0.1117,0.1022,0.108,0.0869,0.0771,0.0571,0.0367,0.0413,0.0171,0.0131,0.0168,0.0164,0.017,0.0164,0.022,0.022,0.0221,0.0221,0,0.0503,0.054,0.0651,0.0753,0.0801,0.0898,0.1042,0.1131,0.1171,0.1312,0.1334,0.1282,0.1149,0.0909,0.0678,0.0477,0.0267,0.0178,0.0227,0.0192,0.0044,0.0044,0.0006,0.0004,0.0002,-0.0,-0.0002,0,0.0539,0.06,0.0744,0.0833,0.0891,0.103,0.1139,0.1216,0.1325,0.1446,0.1532,0.1448,0.1406,0.1024,0.0665,0.0312,0.0256,0.0094,0.0039,0.0061,0.0025,0.0029,0.0032,0.0067,0.0066,0.0065,0.0065,0,0.0622,0.0669,0.0766,0.094,0.1074,0.1235,0.1393,0.1507,0.1625,0.1731,0.1842,0.1812,0.147,0.1114,0.0618,0.0377,0.0145,0.0067,0.0106,0.0107,0.011,0.0077,0.008,0.0059,0.006,0.006,0.0061,0.0061,0.0689,0.0773,0.0899,0.1069,0.1227,0.1431,0.157,0.1734,0.1924,0.2088,0.2047,0.1997,0.1591,0.0954,0.0535,0.0102,0.0121,-0.0053,-0.0047,-0.0041,-0.0032,-0.0034,-0.011,-0.0111,-0.0111,-0.0111,-0.0112,0,0.0779,0.0876,0.1024,0.123,0.1404,0.1483,0.1737,0.187,0.2094,0.2207,0.2261,0.1868,0.1464,0.1002,0.0366,-0.003,-0.004,-0.0168,-0.0092,-0.0083,-0.0076,-0.0067,-0.0155,-0.0157,-0.0158,-0.0159,0,0,0.0835,0.0981,0.1052,0.1343,0.1495,0.1734,0.1886,0.2072,0.2195,0.2295,0.2257,0.2148,0.1597,0.1113,0.0583,0.022,0.016,0.0145,0.0224,0.0386,0.0398,0.0033,0.0062,0,0,0,0,0]}],[{"header":{"parameterUnit":"m.s-1","parameterCategory":2,"la1":30.2991,"la2":30.254,"lo1":-89.0895,"lo2":-89.0444,"dy":0.0017,"dx":0.0017,"nx":28,"ny":28,"refTime":"2024-07-19T03:00:00:Z","depth":"4","parameterNumber":2,"parameterNumberName":"U-component_of_CURRENTS"},"data":[0,0,0,0,0,0,0,0,0,0,0,0,0,0,0,0,0,0,0,0,0,0,0,0,0,0,0,0,0,0,0,0,0,0,0,0,0,0,0,0,0,0,0,0,0,0,0,0,0,0,0,0,0,0,0,0,0,0,0.2169,0.217,0,0.2232,0.2232,0.2233,0.2293,0.2294,0.2295,0.2296,0.2359,0.236,0.236,0,0,0,0,0,0,0,0,0,0,0,0,0,0.2097,0.2098,0.2169,0.217,0.2171,0.2232,0.2232,0.2233,0.2293,0.2294,0.2295,0.2296,0.2359,0.2359,0.236,0,0,0,0,0,0,0,0,0,0,0,0,0,0.2139,0.2098,0.2169,0.221,0.2214,0.2232,0.2232,0.2233,0.2292,0.2294,0.2295,0.2297,0.2358,0.2359,0.236,0.2338,0,0,0.2364,0.2365,0,0,0,0,0,0,0,0,0.2136,0.2141,0.2203,0.2207,0.2212,0.2258,0.2231,0.2269,0.2292,0.226,0.2296,0.2297,0.2325,0.2329,0.2335,0.2341,0.2344,0.2364,0.2365,0.2365,0.2366,0,0,0,0,0,0,0,0.2133,0.2139,0.2191,0.2204,0.2209,0.2224,0.2231,0.2238,0.2282,0.2263,0.2268,0.2278,0.2328,0.2333,0.2337,0.2345,0.2364,0.2365,0.2366,0.2366,0.2452,0.2454,0,0,0,0,0,0,0.2129,0.2136,0.219,0.2194,0.218,0.2224,0.2232,0.224,0.2282,0.2291,0.2277,0.2281,0.2331,0.2335,0.2339,0.2431,0.2365,0.2366,0.2367,0.2451,0.2452,0.2454,0,0,0,0,0,0,0.2127,0.2133,0.2187,0.2168,0.2177,0.2224,0.2232,0.224,0.2293,0.2293,0.2302,0.2327,0.2332,0.2338,0.2379,0.243,0.2367,0.2368,0.2449,0.2451,0.2453,0.2541,0,0,0,0,0,0,0.2125,0.2132,0.216,0.2168,0.2178,0.2225,0.2231,0.2241,0.2295,0.2302,0.2338,0.2343,0.2334,0.2378,0.2381,0.243,0.2369,0.2447,0.245,0.2453,0.2536,0.2546,0.2554,0,0,0,0,0,0.2122,0.2144,0.216,0.2169,0.2206,0.2226,0.2233,0.227,0.2297,0.2323,0.2348,0.2344,0.2399,0.238,0.2383,0.2434,0.2445,0.2449,0.2452,0.2532,0.2544,0.2554,0,0,0,0,0,0,0.2131,0.2152,0.2171,0.2201,0.2228,0.2238,0.2274,0.2296,0.2336,0.2359,0.2358,0.2364,0.2421,0.2411,0.239,0.2466,0.2424,0.2428,0.2483,0.2495,0.2504,0.2515,0.237,0,0,0,0,0,0.2143,0.2169,0.2187,0.2219,0.2236,0.2265,0.2289,0.2313,0.2338,0.2361,0.2383,0.2407,0.2429,0.245,0.2462,0.25,0.2513,0.2536,0.2546,0.2554,0.2564,0.2628,0.2644,0.2466,0.2466,0.2466,0,0,0.2156,0.2174,0.219,0.2224,0.2251,0.2274,0.2284,0.2333,0.2364,0.2358,0.2423,0.2442,0.2446,0.2491,0.2517,0.2497,0.2613,0.2558,0.2565,0.2572,0.2634,0.2651,0.2667,0.2468,0.2468,0.2467,0,0,0.2174,0.2212,0.2234,0.2255,0.2302,0.2317,0.2341,0.2378,0.2416,0.2467,0.2475,0.2529,0.2558,0.2576,0.2585,0.2652,0.2658,0.266,0.2722,0.2784,0.2799,0.2813,0.2859,0.2876,0.2667,0.2667,0.2668,0,0.2196,0.2216,0.2246,0.2268,0.2294,0.234,0.2367,0.2403,0.2453,0.249,0.2504,0.2589,0.2599,0.2657,0.2684,0.2677,0.2705,0.268,0.2798,0.2811,0.2824,0.2868,0.2886,0.2672,0.2672,0.2671,0.2671,0,0.2207,0.2242,0.226,0.23,0.2335,0.2368,0.2412,0.247,0.2528,0.2562,0.2656,0.2683,0.2738,0.2753,0.2741,0.2836,0.2826,0.2802,0.2772,0.2848,0.2888,0.2905,0.2679,0.2677,0.2676,0.2675,0,0,0.22,0.2257,0.2268,0.229,0.2356,0.2378,0.2452,0.2519,0.2586,0.2657,0.2739,0.2801,0.2846,0.2859,0.287,0.2925,0.3043,0.2911,0.2912,0.2962,0.3184,0.2972,0.297,0.3048,0.3051,0.3054,0.3178,0,0.2204,0.2239,0.2276,0.2325,0.2344,0.2416,0.2479,0.2555,0.2637,0.2727,0.2796,0.288,0.2877,0.2933,0.2989,0.3033,0.3092,0.3011,0.3098,0.31,0.2908,0.2984,0.3064,0.3191,0.3195,0.3197,0.3199,0,0.219,0.2217,0.2258,0.2335,0.2357,0.2409,0.2531,0.2596,0.2728,0.2802,0.2909,0.2963,0.3076,0.3055,0.3194,0.3149,0.3181,0.3203,0.3208,0.299,0.292,0.3097,0.323,0.3228,0.3225,0.3223,0.3221,0,0.2135,0.2204,0.2239,0.2258,0.2352,0.2416,0.2497,0.2629,0.2708,0.287,0.2956,0.3077,0.3175,0.324,0.3304,0.3272,0.3433,0.3388,0.3226,0.3212,0.3327,0.3311,0.3481,0.3481,0.3481,0.3481,0.348,0,0.2087,0.2119,0.2225,0.2234,0.2302,0.2402,0.2513,0.2612,0.2777,0.2866,0.3005,0.3094,0.3233,0.3327,0.3353,0.3345,0.3485,0.3251,0.3233,0.336,0.3346,0.334,0.3322,0.3485,0.3484,0.3483,0.3482,0,0.199,0.2064,0.2103,0.2222,0.2268,0.2324,0.2508,0.2578,0.2773,0.2899,0.2964,0.3157,0.3284,0.338,0.3498,0.3398,0.3413,0.3371,0.3519,0.3506,0.3139,0.3124,0.3198,0.3192,0.3187,0.3182,0.3178,0,0.1931,0.1939,0.2065,0.2095,0.2152,0.2266,0.2333,0.2543,0.2624,0.2904,0.2937,0.3145,0.3242,0.3252,0.3364,0.3398,0.3352,0.3325,0.3205,0.3136,0.3113,0.3107,0.3099,0.317,0.3168,0.3167,0.3165,0,0.1803,0.1872,0.1915,0.1977,0.2049,0.2109,0.2241,0.2292,0.2528,0.2733,0.2849,0.2922,0.3054,0.313,0.3183,0.3194,0.3318,0.3268,0.3277,0.3164,0.3102,0.3083,0.3082,0.3147,0.315,0.3151,0.3152,0,0.1723,0.1721,0.1798,0.1835,0.1918,0.1929,0.2017,0.2126,0.2248,0.2564,0.2597,0.2824,0.3026,0.3028,0.3077,0.3073,0.3016,0.2885,0.2914,0.2936,0.2787,0.2665,0.2574,0,0,0,0,0,0.1633,0.1616,0.1638,0.1673,0.1751,0.18,0.1937,0.2039,0.2279,0.229,0.2447,0.2559,0.2658,0.2778,0.2722,0.2942,0.3011,0.2859,0.2869,0.3043,0.3065,0.2911,0,0,0,0,0,0,0.1561,0.1597,0.1588,0.154,0.1538,0.1598,0.168,0.1829,0.1863,0.2122,0.2199,0.2393,0.2535,0.2677,0.2677,0.2708,0.2654,0.3008,0.3,0.3031,0.3051,0.3068,0.2917,0,0,0,0,0]},{"header":{"parameterUnit":"m.s-1","parameterCategory":2,"la1":30.2991,"la2":30.254,"lo1":-89.0895,"lo2":-89.0444,"dy":0.0017,"dx":0.0017,"nx":28,"ny":28,"refTime":"2024-07-19T03:00:00:Z","depth":"4","parameterNumber":3,"parameterNumberName":"V-component_of_CURRENTS"},"data":[0,0,0,0,0,0,0,0,0,0,0,0,0,0,0,0,0,0,0,0,0,0,0,0,0,0,0,0,0,0,0,0,0,0,0,0,0,0,0,0,0,0,0,0,0,0,0,0,0,0,0,0,0,0,0,0,0,0,0.0052,0.0052,0,0.0012,0.0011,0.0011,-0.0016,-0.0016,-0.0016,-0.0016,-0.0066,-0.0067,-0.0068,0,0,0,0,0,0,0,0,0,0,0,0,0,0.0074,0.0074,0.0052,0.0052,0.0051,0.0012,0.0011,0.0011,-0.0016,-0.0016,-0.0016,-0.0016,-0.0065,-0.0066,-0.0068,0,0,0,0,0,0,0,0,0,0,0,0,0,0.0052,0.0074,0.0052,0.0034,0.0032,0.0012,0.0011,0.0011,-0.0016,-0.0016,-0.0016,-0.0016,-0.0065,-0.0066,-0.0068,-0.0074,0,0,-0.0073,-0.0074,0,0,0,0,0,0,0,0,0.0053,0.0051,0.0037,0.0035,0.0032,0.0003,0.0001,-0.0018,-0.0016,0.0002,-0.0016,-0.0016,-0.0043,-0.0047,-0.0054,-0.0077,-0.0079,-0.0074,-0.0075,-0.0075,-0.0076,0,0,0,0,0,0,0,0.0055,0.0053,0.0036,0.0036,0.0034,0.0016,0.0013,-0.0003,-0.0019,0.0,-0.0002,-0.0006,-0.0044,-0.0052,-0.0055,-0.008,-0.0074,-0.0075,-0.0076,-0.0077,-0.0093,-0.0093,0,0,0,0,0,0,0.0062,0.0054,0.0037,0.0035,0.0043,0.0016,0.0012,0.0013,-0.0019,-0.0024,-0.0005,-0.0007,-0.0049,-0.0053,-0.0057,-0.0039,-0.0075,-0.0077,-0.0078,-0.0094,-0.0093,-0.0093,0,0,0,0,0,0,0.0063,0.0062,0.0039,0.0043,0.0039,0.0016,0.0016,0.0012,0.0007,-0.0023,-0.0028,-0.0005,-0.0049,-0.0055,-0.0061,-0.0042,-0.0078,-0.0079,-0.0095,-0.0094,-0.0093,-0.0021,0,0,0,0,0,0,0.0064,0.0062,0.0064,0.0044,0.0039,0.0035,0.0016,0.0011,0.0005,0.0003,-0.0025,-0.003,-0.005,-0.0058,-0.0063,-0.0046,-0.0081,-0.0096,-0.0094,-0.0093,-0.0024,-0.0018,-0.0012,0,0,0,0,0,0.0065,0.007,0.0065,0.0063,0.0044,0.0036,0.0032,0.0014,0.0005,0.0008,-0.0008,-0.0029,-0.0055,-0.0059,-0.0065,-0.0047,-0.0096,-0.0095,-0.0093,-0.0027,-0.0019,-0.0012,0,0,0,0,0,0,0.0078,0.0067,0.0061,0.0062,0.0054,0.0032,0.003,0.0019,0.0008,0.0006,-0.0022,-0.0027,-0.0027,-0.0048,-0.0053,-0.005,-0.0079,-0.0078,-0.0026,-0.0019,-0.0013,-0.0005,-0.0082,0,0,0,0,0,0.0083,0.0087,0.0072,0.0074,0.0071,0.0052,0.0046,0.0036,0.0023,0.0017,-0.0001,-0.0018,-0.0027,-0.0031,-0.0048,-0.0044,-0.0082,-0.0038,-0.0031,-0.0026,-0.0024,-0.0065,-0.0063,-0.0088,-0.0088,-0.0088,0,0,0.0087,0.0083,0.0083,0.0078,0.0068,0.0079,0.0048,0.0044,0.0059,0.0014,0.0025,-0.0001,-0.0022,-0.0018,-0.002,-0.0032,-0.0038,-0.0024,-0.002,-0.002,-0.0064,-0.0061,-0.0059,-0.0087,-0.0087,-0.0087,0,0,0.0103,0.0096,0.0107,0.0107,0.0101,0.0094,0.0097,0.0081,0.0079,0.0085,0.0058,0.0044,0.0032,0.0018,0.0012,0.004,-0.0008,0.0036,0.0077,0.0037,0.0039,0.004,-0.0001,-0.0005,0.0043,0.0043,0.0043,0,0.0109,0.0127,0.0108,0.0125,0.0137,0.0108,0.0134,0.0128,0.0113,0.0119,0.0099,0.0076,0.0051,0.0061,0.0069,0.0054,0.002,0.0055,0.0045,0.0045,0.0045,0.0002,-0.0002,0.0047,0.0046,0.0046,0.0046,0,0.0138,0.0157,0.0165,0.0184,0.0192,0.0207,0.0203,0.0209,0.0203,0.0193,0.0192,0.0152,0.014,0.0129,0.0109,0.0103,0.0076,0.0055,0.0028,0.0052,0.0005,-0.0001,0.0052,0.0051,0.0049,0.0049,0,0,0.015,0.0181,0.0188,0.022,0.023,0.0247,0.0272,0.0291,0.0317,0.0284,0.0305,0.0273,0.0238,0.0227,0.019,0.0152,0.0118,0.0108,0.0104,0.0069,0.0026,0.0014,0.0006,0.0094,0.0093,0.0093,-0.0005,0,0.0185,0.024,0.0245,0.031,0.0342,0.0341,0.0376,0.0386,0.0383,0.0391,0.0338,0.0339,0.0281,0.0277,0.0229,0.0149,0.0105,0.0146,0.0006,0.0002,-0.001,-0.0,0.0091,-0.0009,-0.0011,-0.0012,-0.0013,0,0.0219,0.0258,0.0327,0.0395,0.041,0.0446,0.0505,0.0533,0.0528,0.0522,0.0494,0.0444,0.0393,0.0335,0.0203,0.0232,0.0136,0.0061,0.0056,0.0015,-0.0021,-0.004,-0.0025,-0.0024,-0.0023,-0.0022,-0.0021,0,0.0253,0.0321,0.0387,0.0409,0.0472,0.0514,0.0551,0.0573,0.0618,0.0603,0.0614,0.0533,0.0501,0.0372,0.0211,0.021,0.0047,0.0029,-0.0076,-0.0078,-0.0071,-0.0071,-0.0073,-0.0073,-0.0073,-0.0073,-0.0072,0,0.0296,0.0351,0.0415,0.0453,0.0553,0.0572,0.0667,0.0687,0.072,0.0772,0.0687,0.0687,0.0507,0.039,0.0235,0.0061,0.0065,-0.007,-0.0102,-0.0038,-0.0033,-0.0076,-0.0074,-0.0076,-0.0075,-0.0075,-0.0074,0,0.0325,0.0362,0.0449,0.0533,0.0574,0.0647,0.0761,0.082,0.0837,0.0897,0.0897,0.0805,0.0658,0.046,0.0243,0.0108,-0.0067,-0.0136,-0.0054,-0.0081,-0.0172,-0.0166,-0.0244,-0.0245,-0.0246,-0.0247,-0.0248,0,0.0345,0.0391,0.0512,0.0581,0.0629,0.074,0.082,0.088,0.0943,0.0968,0.0994,0.0876,0.0784,0.0475,0.0254,-0.0041,-0.009,-0.0192,-0.0183,-0.0165,-0.0189,-0.0181,-0.0174,-0.025,-0.025,-0.025,-0.025,0,0.0391,0.0433,0.0508,0.0642,0.0745,0.0871,0.098,0.1033,0.1097,0.1106,0.1079,0.0919,0.0748,0.0494,0.0254,0.004,-0.0129,-0.0203,-0.0202,-0.0194,-0.0172,-0.0194,-0.0185,-0.0254,-0.0253,-0.0253,-0.0253,0,0.0428,0.0487,0.0585,0.0709,0.0837,0.0962,0.102,0.1092,0.1157,0.1169,0.1152,0.0965,0.0855,0.0535,0.0317,0.0103,0.0052,-0.0031,-0.004,-0.0039,0.0042,0.0101,0.0078,0,0,0,0,0,0.0466,0.0536,0.0645,0.0781,0.0901,0.0985,0.1114,0.1156,0.1202,0.1198,0.1185,0.1026,0.0716,0.0579,0.0367,0.0285,0.0001,0.0026,-0.0101,-0.0273,-0.0269,-0.0212,0,0,0,0,0,0,0.0497,0.0595,0.0647,0.0815,0.091,0.1058,0.1145,0.1181,0.1181,0.1184,0.1028,0.0954,0.0656,0.0838,0.0357,0.0292,0.0177,-0.0116,-0.0121,-0.0276,-0.0272,-0.0269,-0.0208,0,0,0,0,0]}]]